Multibeam Report for KM1222


Ship Name: Kilo Moana
Chief Scientist: Clemente, Tara
University of Hawaii
Source Organization: UNOLS R2R
Start Date: 2012-10-01
End Date: 2012-10-04


View ISO Metadata

Visit the full NCEI Bathymetry Viewer


Multibeam Bathymetry

Cruise Details

Project: C-MORE: Hawaii Ocean Experiment-Dynamics of Light and Nutrients (HOE-DYLAN)
Instrument: Kongsberg EM122

Data Quality

Number of Files: 52
Number of Records: 100229
BATHYMETRY DATA Quantity Percentage
Number of Beams 41333744 100%
Number of Good Beams 39120429 94.65%
Number of Zero Beams 0 0%
Number of Flagged Beams 2213315 5.35%

Navigation Totals

Total Time: 47.524 hours
Total Track Length: 545.249 km
Average Speed: 11.473 km/hr (6.1949 knots)

Cruise Bounds

Northern Extent: 22.796059
Southern Extent: 21.221325
Western Extent: -158.33775
Eastern Extent: -157.86372

Limits

Minimum Sonar Depth 5.4943 Maximum Sonar Depth 9.1962
Minimum Altitude 7.9675 Maximum Altitude 4870.3086
Minimum Depth 13.556 Maximum Depth 5444.98

File Information

Full Resolution Bathymetry as collected (raw): 51

Files File Size Description
0000_20121001_194809_KM122.all.mb58.gz 66.54MB Kongsberg multibeam vendor format
0001_20121001_204809_KM122.all.mb58.gz 65.93MB Kongsberg multibeam vendor format
0002_20121001_214809_KM122.all.mb58.gz 80.33MB Kongsberg multibeam vendor format
0003_20121001_224809_KM122.all.mb58.gz 86.19MB Kongsberg multibeam vendor format
0004_20121001_234809_KM122.all.mb58.gz 91.79MB Kongsberg multibeam vendor format
0005_20121002_005335_KM122.all.mb58.gz 131.63MB Kongsberg multibeam vendor format
0006_20121002_015332_KM122.all.mb58.gz 73.85MB Kongsberg multibeam vendor format
0007_20121002_025333_KM122.all.mb58.gz 56.78MB Kongsberg multibeam vendor format
0008_20121002_035332_KM122.all.mb58.gz 53.60MB Kongsberg multibeam vendor format
0009_20121002_045338_KM122.all.mb58.gz 53.92MB Kongsberg multibeam vendor format
0010_20121002_055332_KM122.all.mb58.gz 90.67MB Kongsberg multibeam vendor format
0011_20121002_065334_KM122.all.mb58.gz 56.50MB Kongsberg multibeam vendor format
0012_20121002_075339_KM122.all.mb58.gz 46.39MB Kongsberg multibeam vendor format
0013_20121002_085343_KM122.all.mb58.gz 44.30MB Kongsberg multibeam vendor format
0014_20121002_095343_KM122.all.mb58.gz 44.47MB Kongsberg multibeam vendor format
0015_20121002_105334_KM122.all.mb58.gz 44.49MB Kongsberg multibeam vendor format
0016_20121002_115334_KM122.all.mb58.gz 44.51MB Kongsberg multibeam vendor format
0017_20121002_125336_KM122.all.mb58.gz 44.49MB Kongsberg multibeam vendor format
0018_20121002_135343_KM122.all.mb58.gz 44.23MB Kongsberg multibeam vendor format
0019_20121002_145337_KM122.all.mb58.gz 44.43MB Kongsberg multibeam vendor format
0020_20121002_155343_KM122.all.mb58.gz 26.42MB Kongsberg multibeam vendor format
0021_20121004_002359_KM122.all.mb58.gz 43.85MB Kongsberg multibeam vendor format
0022_20121004_012401_KM122.all.mb58.gz 43.66MB Kongsberg multibeam vendor format
0023_20121004_022411_KM122.all.mb58.gz 43.58MB Kongsberg multibeam vendor format
0024_20121004_032412_KM122.all.mb58.gz 43.68MB Kongsberg multibeam vendor format
0025_20121004_042404_KM122.all.mb58.gz 43.94MB Kongsberg multibeam vendor format
0026_20121004_052404_KM122.all.mb58.gz 43.96MB Kongsberg multibeam vendor format
0027_20121004_062411_KM122.all.mb58.gz 43.89MB Kongsberg multibeam vendor format
0028_20121004_072357_KM122.all.mb58.gz 44.91MB Kongsberg multibeam vendor format
0029_20121004_082400_KM122.all.mb58.gz 53.24MB Kongsberg multibeam vendor format
0030_20121004_092355_KM122.all.mb58.gz 92.04MB Kongsberg multibeam vendor format
0031_20121004_102354_KM122.all.mb58.gz 55.23MB Kongsberg multibeam vendor format
0032_20121004_112356_KM122.all.mb58.gz 49.87MB Kongsberg multibeam vendor format
0033_20121004_122355_KM122.all.mb58.gz 52.95MB Kongsberg multibeam vendor format
0034_20121004_132358_KM122.all.mb58.gz 61.31MB Kongsberg multibeam vendor format
0035_20121004_142354_KM122.all.mb58.gz 72.93MB Kongsberg multibeam vendor format
0036_20121004_152354_KM122.all.mb58.gz 56.98MB Kongsberg multibeam vendor format
9999.all.mb58.gz 10.94MB Kongsberg multibeam vendor format
0000_20121001_193449_KM710.all.mb58.gz 80.38MB Kongsberg multibeam vendor format
0001_20121001_194832_KM710.all.mb58.gz 70.10MB Kongsberg multibeam vendor format
0002_20121001_204833_KM710.all.mb58.gz 66.66MB Kongsberg multibeam vendor format
0003_20121001_214832_KM710.all.mb58.gz 166.54MB Kongsberg multibeam vendor format
0004_20121001_224832_KM710.all.mb58.gz 220.56MB Kongsberg multibeam vendor format
0005_20121001_234832_KM710.all.mb58.gz 238.29MB Kongsberg multibeam vendor format
0006_20121002_004832_KM710.all.mb58.gz 335.94MB Kongsberg multibeam vendor format
0007_20121002_014832_KM710.all.mb58.gz 115.58MB Kongsberg multibeam vendor format
0008_20121002_024833_KM710.all.mb58.gz 70.79MB Kongsberg multibeam vendor format
0009_20121002_034833_KM710.all.mb58.gz 52.58MB Kongsberg multibeam vendor format
0010_20121002_044834_KM710.all.mb58.gz 55.61MB Kongsberg multibeam vendor format
0011_20121002_054833_KM710.all.mb58.gz 163.50MB Kongsberg multibeam vendor format
9999.all.mb58.gz 2.67MB Kongsberg multibeam vendor format

Metadata Files: 1

Files File Size Description
KM1222_Multibeam.xml NGDC created ISO metadata